FW4407 Weather Reports


Display with metric or nautical units.
time (UTC)temp
F
wind
direction
speed
MPH
gust
MPH
rain 1hr
in
rain 24hr
in
rain mn
in
humidity
%
barometer
mb
20260906222019 84 102 0.0 2.0 0.00 0.00 0.00 37 1020.3
20260906221027 83 0.0 0.0 0.00 0.00 0.00 36 1020.3
20260906220019 83 129 2.0 8.0 0.00 0.00 0.00 37 1020.3
20260906215028 83 121 1.0 5.0 0.00 0.00 0.00 37 1020.3
20260906214019 83 139 0.0 2.0 0.00 0.00 0.00 38 1020.3
20260906213027 83 130 1.0 5.0 0.00 0.00 0.00 38 1020.3
20260906212019 83 128 1.0 5.0 0.00 0.00 0.00 38 1020.3
20260906211028 84 125 1.0 5.0 0.00 0.00 0.00 39 1020.3
20260906210040 84 130 2.0 5.0 0.00 0.00 0.00 39 1020.2
20260906205027 84 119 2.0 8.0 0.00 0.00 0.00 38 1020.2
20260906204040 83 125 3.0 8.0 0.00 0.00 0.00 39 1020.2
20260906203028 83 115 2.0 5.0 0.00 0.00 0.00 40 1020.2
20260906202020 83 132 2.0 5.0 0.00 0.00 0.00 41 1020.2
20260906201027 83 130 1.0 5.0 0.00 0.00 0.00 42 1020.2
20260906200019 83 122 2.0 8.0 0.00 0.00 0.00 43 1020.2
20260906195027 83 167 0.0 2.0 0.00 0.00 0.00 43 1020.2
20260906194019 84 0.0 0.0 0.00 0.00 0.00 43 1020.1
20260906193027 84 52 0.0 2.0 0.00 0.00 0.00 43 1019.9
20260906192019 84 0.0 0.0 0.00 0.00 0.00 42 1019.9
20260906191048 84 108 1.0 5.0 0.00 0.00 0.00 42 1019.9
20260906190019 85 135 3.0 8.0 0.00 0.00 0.00 42 1019.8
20260906185027 85 129 1.0 5.0 0.00 0.00 0.00 44 1019.7
20260906184019 85 70 3.0 5.0 0.00 0.00 0.00 45 1019.6
20260906183027 85 127 1.0 5.0 0.00 0.00 0.00 45 1019.5
20260906182019 86 129 2.0 5.0 0.00 0.00 0.00 44 1019.2
20260906181027 86 139 1.0 5.0 0.00 0.00 0.00 43 1019.1
20260906180019 87 134 0.0 2.0 0.00 0.00 0.00 43 1019.0
20260906175027 87 338 0.0 2.0 0.00 0.00 0.00 42 1018.9
20260906174019 88 30 0.0 2.0 0.00 0.00 0.00 41 1018.7
20260906173027 89 360 0.0 5.0 0.00 0.00 0.00 39 1018.6
20260906172019 89 137 1.0 5.0 0.00 0.00 0.00 37 1018.3
20260906171047 90 127 3.0 8.0 0.00 0.00 0.00 35 1018.2
20260906170019 90 129 2.0 10.0 0.00 0.00 0.00 34 1018.2
20260906165027 91 131 1.0 8.0 0.00 0.00 0.00 33 1018.1
20260906164019 91 129 3.0 10.0 0.00 0.00 0.00 33 1018.0
20260906163028 92 107 1.0 5.0 0.00 0.00 0.00 33 1018.0
20260906162019 92 111 1.0 10.0 0.00 0.00 0.00 33 1018.0
20260906161027 93 120 2.0 8.0 0.00 0.00 0.00 33 1018.1
20260906160019 94 143 1.0 8.0 0.00 0.00 0.00 32 1018.1
20260906155027 95 0.0 0.0 0.00 0.00 0.00 32 1018.1
20260906154019 96 120 0.0 5.0 0.00 0.00 0.00 31 1018.1
20260906153028 97 0.0 0.0 0.00 0.00 0.00 32 1018.1
20260906152020 98 0.0 0.0 0.00 0.00 0.00 31 1017.9
20260906151047 98 348 1.0 8.0 0.00 0.00 0.00 31 1018.0
20260906150019 98 211 1.0 5.0 0.00 0.00 0.00 30 1017.8
20260906145027 97 190 1.0 5.0 0.00 0.00 0.00 28 1017.9
20260906144019 97 16 1.0 8.0 0.00 0.00 0.00 28 1017.8
20260906143048 97 118 3.0 10.0 0.00 0.00 0.00 28 1017.9
20260906142039 97 124 2.0 8.0 0.00 0.00 0.00 28 1017.8
20260906141027 97 135 3.0 10.0 0.00 0.00 0.00 28 1017.9
20260906140039 97 113 5.0 13.0 0.00 0.00 0.00 29 1018.0
20260906135027 97 99 2.0 10.0 0.00 0.00 0.00 28 1017.8
20260906134019 97 122 5.0 15.0 0.00 0.00 0.00 28 1017.9
20260906133027 97 109 3.0 8.0 0.00 0.00 0.00 27 1017.8
20260906132019 98 125 6.0 15.0 0.00 0.00 0.00 28 1018.0
20260906131047 97 7 3.0 10.0 0.00 0.00 0.00 28 1017.9
20260906130019 97 117 4.0 13.0 0.00 0.00 0.00 28 1018.2
20260906125027 97 115 4.0 10.0 0.00 0.00 0.00 27 1018.1
20260906124019 97 139 3.0 13.0 0.00 0.00 0.00 27 1018.1
20260906123027 97 113 5.0 17.0 0.00 0.00 0.00 26 1018.1
20260906122019 97 131 3.0 10.0 0.00 0.00 0.00 26 1018.1
20260906121027 97 129 7.0 20.0 0.00 0.00 0.00 27 1018.2
20260906120019 97 34 4.0 13.0 0.00 0.00 0.00 27 1018.1
20260906115027 97 357 3.0 15.0 0.00 0.00 0.00 27 1018.1
20260906114020 97 116 4.0 10.0 0.00 0.00 0.00 27 1018.2
20260906113027 97 98 1.0 8.0 0.00 0.00 0.00 27 1018.1
20260906112019 97 51 4.0 10.0 0.00 0.00 0.00 27 1018.4
20260906111027 96 144 0.0 5.0 0.00 0.00 0.00 27 1018.1
20260906110019 96 143 4.0 10.0 0.00 0.00 0.00 27 1018.2
20260906105027 96 119 2.0 10.0 0.00 0.00 0.00 27 1018.3
20260906104019 96 120 2.0 10.0 0.00 0.00 0.00 28 1018.2
20260906103027 95 129 2.0 13.0 0.00 0.00 0.00 28 1018.4
20260906102019 95 137 1.0 5.0 0.00 0.00 0.00 27 1018.4
20260906101027 95 16 2.0 13.0 0.00 0.00 0.00 28 1018.5
20260906100039 96 124 4.0 15.0 0.00 0.00 0.00 28 1018.5
20260906095027 96 136 1.0 8.0 0.00 0.00 0.00 28 1018.5
20260906094019 96 357 1.0 5.0 0.00 0.00 0.00 29 1018.5
20260906093027 95 308 0.0 2.0 0.00 0.00 0.00 28 1018.7
20260906092019 95 36 0.0 2.0 0.00 0.00 0.00 28 1018.7
20260906091027 95 253 0.0 2.0 0.00 0.00 0.00 29 1018.6
20260906090019 95 4 1.0 8.0 0.00 0.00 0.00 29 1018.8
20260906085027 94 0.0 0.0 0.00 0.00 0.00 27 1018.8
20260906084019 93 229 1.0 5.0 0.00 0.00 0.00 29 1018.8
20260906083027 93 0.0 0.0 0.00 0.00 0.00 29 1018.8
20260906082039 93 128 0.0 2.0 0.00 0.00 0.00 30 1018.7
20260906081027 93 0.0 0.0 0.00 0.00 0.00 30 1018.9
20260906080039 93 250 0.0 2.0 0.00 0.00 0.00 29 1019.0
20260906075047 93 270 0.0 2.0 0.00 0.00 0.00 29 1018.8
20260906074019 93 0.0 0.0 0.00 0.00 0.00 30 1018.9
20260906073027 92 222 0.0 5.0 0.00 0.00 0.00 30 1018.7
20260906072019 91 259 0.0 2.0 0.00 0.00 0.00 29 1018.8
20260906071027 89 0.0 0.0 0.00 0.00 0.00 32 1018.6
20260906070019 88 0.0 0.0 0.00 0.00 0.00 32 1018.4
20260906065027 86 0.0 0.0 0.00 0.00 0.00 33 1018.3
20260906064019 84 0.0 0.0 0.00 0.00 0.00 35 1018.4
20260906063027 83 0.0 0.0 0.00 0.00 0.00 36 1018.2
20260906062039 82 0.0 0.0 0.00 0.00 0.00 37 1018.0
20260906061047 81 0.0 0.0 0.00 0.00 0.00 38 1018.0
20260906060019 81 0.0 0.0 0.00 0.00 0.00 40 1018.0
20260906055047 81 0.0 0.0 0.00 0.00 0.00 41 1018.0
20260906054018 80 0.0 0.0 0.00 0.00 0.00 41 1017.8
20260906053027 78 0.0 0.0 0.00 0.00 0.00 42 1017.7
20260906052018 77 0.0 0.0 0.00 0.00 0.00 44 1017.9
20260906051046 76 0.0 0.0 0.00 0.00 0.00 46 1017.7
20260906050019 74 0.0 0.0 0.00 0.00 0.00 46 1017.9
20260906045026 73 0.0 0.0 0.00 0.00 0.00 46 1017.7
20260906044019 71 0.0 0.0 0.00 0.00 0.00 48 1017.5
20260906043027 71 129 1.0 5.0 0.00 0.00 0.00 50 1017.4
20260906042019 72 0.0 0.0 0.00 0.00 0.00 50 1017.4
20260906041027 73 7 1.0 5.0 0.00 0.00 0.00 49 1017.2
20260906040019 73 42 0.0 2.0 0.00 0.00 0.00 48 1017.3
20260906035026 74 0.0 0.0 0.00 0.00 0.00 46 1017.3
20260906034059 74 0.0 0.0 0.00 0.00 0.00 46 1017.3
20260906033026 74 0.0 0.0 0.00 0.00 0.00 45 1017.3
20260906032039 73 0.0 0.0 0.00 0.00 0.00 45 1017.2
20260906031049 73 133 1.0 5.0 0.00 0.00 0.00 46 1017.1
20260906030018 73 144 0.0 5.0 0.00 0.00 0.00 47 1017.1
20260906025027 73 21 1.0 5.0 0.00 0.00 0.00 47 1016.9
20260906024018 73 0.0 0.0 0.00 0.00 0.00 48 1016.9
20260906023027 73 0.0 0.0 0.00 0.00 0.00 47 1016.6
20260906022019 73 0.0 0.0 0.00 0.00 0.00 47 1016.8
20260906021027 73 0.0 0.0 0.00 0.00 0.00 47 1016.9
20260906020019 73 0.0 0.0 0.00 0.00 0.00 48 1016.7
20260906015026 73 0.0 0.0 0.00 0.00 0.00 47 1016.8
20260906014018 73 0.0 0.0 0.00 0.00 0.00 47 1016.9
20260906013026 73 0.0 0.0 0.00 0.00 0.00 46 1016.9
20260906012018 73 0.0 0.0 0.00 0.00 0.00 47 1017.1
20260906011026 73 0.0 0.0 0.00 0.00 0.00 48 1017.2
20260906010039 74 0.0 0.0 0.00 0.00 0.00 47 1017.0
20260906005026 74 0.0 0.0 0.00 0.00 0.00 46 1017.0
20260906004019 74 0.0 0.0 0.00 0.00 0.00 45 1017.0
20260906003046 75 0.0 0.0 0.00 0.00 0.00 44 1017.0
20260906002019 75 0.0 0.0 0.00 0.00 0.00 44 1017.0
20260906001026 76 0.0 0.0 0.00 0.00 0.00 43 1017.0
20260906000018 76 0.0 0.0 0.00 0.00 0.00 43 1017.1
20260905235026 76 0.0 0.0 0.00 0.00 0.00 41 1017.2
20260905234019 75 0.0 0.0 0.00 0.00 0.00 42 1017.3
20260905233027 75 0.0 0.0 0.00 0.00 0.00 43 1017.3
20260905232018 76 0.0 0.0 0.00 0.00 0.00 44 1017.3
20260905231026 75 0.0 0.0 0.00 0.00 0.00 43 1017.4
20260905230018 76 0.0 0.0 0.00 0.00 0.00 43 1017.6
20260905225026 76 0.0 0.0 0.00 0.00 0.00 43 1017.7
20260905224018 76 0.0 0.0 0.00 0.00 0.00 44 1017.7
20260905223026 76 0.0 0.0 0.00 0.00 0.00 41 1017.7